Theta_e
348 345 339 337 336 336 335 333 333 333 334 334 335 336 336 337 338 340 341 340 336 335 334 333 334 335 336 336 336 336 340 339
349 347 345 343 341 337 336 335 333 333 334 334 335 336 337 337 339 340 341 340 336 333 333 334 334 335 335 335 335 335 339 338
348 347 346 346 345 343 338 336 335 334 335 336 337 341 341 340 341 341 340 340 336 334 334 334 335 335 335 335 334 336 338 337
346 346 346 346 345 345 343 342 340 340 341 341 341 342 342 341 341 341 338 337 336 334 334 334 335 337 336 335 335 337 336 337
344 346 345 345 343 343 343 343 342 342 342 342 342 343 343 342 342 340 340 338 338 336 335 336 337 337 337 336 336 336 335 335
342 343 344 344 342 342 342 342 343 342 342 343 342 343 343 342 342 341 341 340 339 337 337 337 338 337 337 337 336 335 334 334
339 341 342 342 342 340 341 341 342 342 342 343 343 341 342 342 342 342 341 341 340 339 338 338 337 336 336 336 336 335 334 333
339 340 341 341 340 340 340 340 339 340 341 341 343 341 341 341 342 342 342 341 340 339 338 337 336 336 335 334 334 333 333 333
333 339 340 339 339 340 339 338 339 338 340 342 342 341 341 342 341 342 341 341 341 340 338 337 336 336 334 334 333 332 332 332
321 336 338 339 339 338 338 338 338 338 339 339 342 342 340 339 340 340 340 340 340 339 338 336 336 336 335 334 333 333 333 332
319 332 338 338 338 338 338 337 337 337 337 337 338 340 340 339 339 338 339 338 336 338 337 336 336 336 335 334 334 333 333 332
316 327 339 339 338 338 337 337 336 336 335 335 336 338 339 337 337 337 337 338 335 338 334 334 336 335 334 334 334 333 333 332
317 323 337 340 339 337 337 337 336 336 335 336 336 336 336 338 336 335 337 338 337 336 335 333 334 335 335 333 332 332 332 332
318 325 331 340 340 337 335 335 335 336 336 336 336 336 336 336 336 336 337 336 336 335 334 332 332 333 332 332 335 332 330 330
315 322 335 339 341 339 337 336 337 337 337 336 336 336 337 335 336 338 336 335 335 333 332 333 332 332 333 331 333 333 330 330
313 320 325 336 341 341 341 340 341 340 339 339 338 336 336 337 336 337 336 335 335 334 333 333 333 331 330 333 329 330 331 331
308 314 320 324 334 338 340 341 341 341 340 340 337 336 337 337 337 337 336 334 335 333 332 333 334 335 333 331 331 331 330 330
304 307 309 314 320 327 337 338 341 340 340 340 338 336 336 336 338 337 335 334 334 334 334 334 334 334 333 331 330 331 330 329
302 303 305 307 312 313 317 321 325 329 333 336 338 336 336 335 336 335 334 334 334 334 334 333 333 334 333 332 330 329 328 328
299 300 301 303 306 308 309 312 314 317 320 323 330 333 336 335 334 334 334 334 334 335 335 334 334 334 334 332 331 330 329 329
Wind_Speed
19 23 29 29 29 27 26 26 26 25 25 25 25 24 23 22 21 19 18 15 13 14 15 14 13 13 13 12 11 10 6 5
19 22 22 22 24 26 25 26 25 25 25 24 24 23 23 22 20 20 18 16 14 15 15 15 14 13 12 12 10 9 5 5
18 21 21 20 19 21 25 25 25 25 24 24 23 19 20 20 19 19 19 16 15 15 15 15 14 13 12 12 10 6 5 5
19 21 21 20 19 19 21 20 21 22 21 21 20 19 19 18 19 20 18 16 14 15 15 15 14 11 10 11 8 6 6 4
19 21 22 24 23 21 22 22 22 22 22 21 21 19 19 20 18 18 17 16 13 14 14 13 13 12 11 11 9 8 6 6
21 23 23 24 23 24 22 23 24 24 23 23 23 21 20 20 19 20 19 18 17 16 15 15 14 13 11 11 10 9 7 6
23 25 26 25 25 23 24 24 23 22 23 25 24 22 21 21 20 20 20 18 19 18 17 16 15 14 13 11 11 10 9 8
23 28 28 27 27 25 24 24 22 22 22 25 29 24 22 22 21 20 21 19 19 19 18 16 16 15 14 12 11 10 10 9
22 27 31 31 29 27 25 24 24 24 23 24 31 27 24 22 22 20 22 19 20 19 18 17 16 15 15 14 12 11 10 11
25 26 32 34 31 29 27 25 25 23 23 22 24 28 25 24 22 22 19 23 20 20 20 17 18 17 16 16 15 14 13 12
27 27 31 34 33 29 27 24 22 24 23 24 24 26 26 23 22 22 21 22 25 22 19 18 18 18 17 16 15 16 15 14
29 28 30 34 32 30 27 25 24 24 23 23 22 24 26 26 21 22 27 21 23 23 20 21 18 18 16 16 15 15 15 15
24 29 30 32 34 33 30 30 29 26 25 23 23 24 26 28 24 26 30 25 25 23 25 20 17 15 9 9 10 13 16 17
19 25 31 32 34 35 34 31 29 28 25 25 26 26 25 29 27 25 26 23 22 24 24 16 17 18 9 8 5 12 16 20
17 17 22 30 32 32 30 26 23 23 25 26 28 28 27 27 28 27 25 26 24 26 27 23 16 20 22 12 4 7 7 11
13 13 15 13 30 28 31 30 25 24 23 23 24 27 28 30 29 29 28 25 25 24 25 24 18 17 18 25 25 14 5 5
14 13 6 6 7 18 24 24 23 18 18 17 22 22 27 29 29 30 31 28 25 26 24 29 24 22 21 19 24 23 21 14
15 12 12 10 8 10 15 14 15 14 11 12 14 21 24 30 29 30 31 30 31 32 31 31 27 26 26 25 20 18 17 15
18 16 17 16 16 15 14 8 6 7 5 2 11 17 19 26 28 28 32 35 34 33 37 39 36 32 31 28 27 25 21 20
20 20 19 21 19 17 16 14 10 7 5 2 7 5 15 20 24 31 33 34 34 31 29 31 33 34 32 31 28 28 26 25
Wind_Direction
186 186 190 191 192 191 189 189 188 189 188 186 185 184 183 183 181 180 180 187 182 186 179 181 179 174 170 168 171 172 190 184
193 190 188 190 197 198 195 193 193 193 193 190 189 187 185 184 185 185 186 188 187 185 185 179 178 177 170 168 172 176 186 186
201 193 193 192 196 203 200 199 197 197 196 194 191 185 189 192 186 197 193 193 189 193 187 182 178 179 174 175 173 189 201 202
208 200 194 196 200 202 201 200 198 198 196 196 191 192 194 194 195 198 198 198 198 194 194 187 177 187 190 185 192 202 209 217
219 211 201 196 196 200 200 202 201 204 201 197 197 198 198 196 198 196 196 198 197 198 196 193 194 197 194 199 204 203 215 235
223 216 210 205 201 199 201 201 198 198 203 199 199 200 200 198 199 196 198 198 200 199 204 203 206 205 205 206 207 208 214 234
227 216 212 209 205 203 201 206 208 199 195 197 195 202 204 201 203 200 200 198 201 202 207 212 206 210 213 216 214 216 222 228
228 218 211 209 208 207 203 200 207 211 204 202 199 204 207 205 204 201 202 201 204 205 207 210 212 214 217 218 222 225 226 228
239 222 210 208 208 207 204 203 203 207 214 209 208 202 207 201 201 204 202 207 206 206 206 210 215 217 224 223 225 229 231 233
249 222 217 209 207 207 206 206 203 208 207 214 214 207 208 200 202 205 206 207 202 200 196 203 214 220 224 227 230 233 236 239
250 227 219 214 207 205 206 205 205 208 208 209 216 213 212 205 204 205 200 208 205 202 203 208 213 222 228 231 233 237 240 243
257 236 219 214 209 201 204 205 209 209 210 207 207 215 216 211 208 206 205 202 206 207 210 215 215 220 229 236 237 243 246 244
260 239 220 212 206 198 202 206 210 209 213 213 212 212 213 209 215 211 209 205 206 203 209 207 208 212 208 230 245 244 245 244
288 252 225 214 207 203 203 208 210 213 211 213 214 213 215 212 215 213 208 209 207 202 200 196 210 202 194 211 236 241 242 240
306 276 244 215 212 204 199 206 209 211 211 216 216 215 213 217 218 222 221 211 209 204 203 199 195 209 216 217 213 241 231 227
319 290 255 246 213 208 195 189 198 208 214 217 218 216 216 219 219 222 222 212 210 206 205 206 204 198 216 229 241 264 238 219
343 340 327 288 233 212 203 193 207 207 215 218 219 216 220 225 222 220 218 208 207 205 200 208 216 214 213 223 231 237 245 260
0 9 13 25 43 83 134 264 219 213 210 204 214 223 226 228 225 221 214 208 207 207 212 206 213 222 231 232 227 221 228 231
7 16 23 33 56 60 80 117 112 108 141 186 228 219 224 235 230 222 217 214 214 213 215 217 208 214 221 227 230 234 232 228
15 28 23 26 40 52 59 58 54 50 29 330 257 264 240 245 244 234 227 220 222 219 224 224 205 210 215 219 228 230 232 231